Orbital Elements
Epoch 2025 Sept. 2.0 TT = JDT 2460920.5
T 2025 Aug. 29.21776 TT MPCW
q 3.0580822 (2000.0) P Q
n 0.11263672 Peri. 36.13768 +0.84524941 +0.53330645
a 4.2463525 Node 291.59971 -0.49839344 +0.76399906
e 0.2798332 Incl. 2.07895 -0.19276257 +0.36316617
P 8.75
From 262 observations 2006 May 25-2016 Nov. 24, mean residual 0".7.
|